Location: Newark
(49.8969°N, 3.3422°E)
Time: 06:45:53
(UTC+00:00)

Envisat - Pass Details

Date: 11 December 2019
Orbit: 764 x 766 km, 98.1° (Epoch: 20 January)

Event Time Altitude Azimuth Distance (km) Brightness Sun altitude
Rises 18:39:51 0° 199° (SSW) 3,222 6.5 -26.9°
Reaches altitude 10° 18:42:32 10° 213° (SSW) 2,301 5.9 -27.3°
Maximum altitude 18:46:41 25° 268° (W) 1,511 5.2 -28.0°
Drops below altitude 10° 18:50:52 10° 323° (NW) 2,315 5.9 -28.7°
Sets 18:53:35 0° 337° (NNW) 3,247 6.5 -29.1°
